TimeCST,TemperatureF,Dew PointF,Humidity,Sea Level PressureIn,VisibilityMPH,Wind Direction,Wind SpeedMPH,Gust SpeedMPH,PrecipitationIn,Events,Conditions,WindDirDegrees,DateUTC
12:53 AM,34.0,27.0,75,30.28,8.0,North,11.5,-,N/A,,Clear,10,2013-01-02 06:53:00
1:53 AM,33.1,27.0,78,30.29,8.0,North,9.2,-,N/A,,Clear,10,2013-01-02 07:53:00
2:53 AM,33.1,25.0,72,30.30,9.0,Calm,Calm,-,N/A,,Clear,0,2013-01-02 08:53:00
3:53 AM,33.1,25.0,72,30.29,10.0,North,6.9,-,N/A,,Clear,10,2013-01-02 09:53:00
4:53 AM,32.0,25.0,75,30.30,9.0,North,3.5,-,N/A,,Clear,360,2013-01-02 10:53:00
5:53 AM,32.0,25.0,75,30.31,9.0,NNW,6.9,-,N/A,,Clear,340,2013-01-02 11:53:00
6:53 AM,32.0,25.0,75,30.31,9.0,North,4.6,-,N/A,,Clear,350,2013-01-02 12:53:00
7:53 AM,32.0,25.0,75,30.31,8.0,NNW,10.4,-,N/A,,Clear,340,2013-01-02 13:53:00
8:53 AM,33.1,25.0,72,30.35,8.0,North,3.5,-,N/A,,Clear,350,2013-01-02 14:53:00
9:53 AM,34.0,25.0,70,30.35,9.0,North,8.1,-,N/A,,Clear,350,2013-01-02 15:53:00
10:53 AM,37.0,25.0,62,30.36,9.0,North,9.2,-,N/A,,Clear,350,2013-01-02 16:53:00
11:53 AM,39.0,26.1,60,30.33,10.0,North,11.5,-,N/A,,Clear,360,2013-01-02 17:53:00
12:53 PM,41.0,25.0,53,30.29,10.0,North,4.6,-,N/A,,Clear,10,2013-01-02 18:53:00
1:53 PM,43.0,26.1,51,30.26,10.0,North,6.9,-,N/A,,Clear,350,2013-01-02 19:53:00
2:53 PM,44.1,25.0,47,30.26,10.0,North,9.2,-,N/A,,Clear,360,2013-01-02 20:53:00
3:53 PM,44.1,24.1,45,30.26,10.0,North,10.4,-,N/A,,Clear,10,2013-01-02 21:53:00
5:53 PM,42.1,25.0,51,30.27,10.0,NNE,4.6,-,N/A,,Clear,20,2013-01-02 23:53:00
6:53 PM,39.9,26.1,58,30.29,10.0,Calm,Calm,-,N/A,,Clear,0,2013-01-03 00:53:00
7:53 PM,37.0,27.0,67,30.32,10.0,Calm,Calm,-,N/A,,Clear,0,2013-01-03 01:53:00
8:53 PM,35.1,26.1,70,30.32,10.0,Calm,Calm,-,N/A,,Clear,0,2013-01-03 02:53:00
10:53 PM,28.9,24.1,82,30.36,9.0,Calm,Calm,-,N/A,,Clear,0,2013-01-03 04:53:00
11:53 PM,28.9,24.1,82,30.36,9.0,Calm,Calm,-,N/A,,Clear,0,2013-01-03 05:53:00